Location: Penum?ka
(16.4840°N, 80.5772°E)
Time: 14:11:17
(UTC+00:00)

Cosmos 2227 Rocket - Pass Details

Date: 19 May 2025
Orbit: 837 x 844 km, 71.0° (Epoch: 17 June)

Event Time Altitude Azimuth Distance (km) Brightness Sun altitude
Exits shadow 21:26:44 15° 339° (NNW) 2,111 4.4 -34.1°
Drops below altitude 10° 21:27:53 10° 347° (NNW) 2,445 4.8 -33.9°
Sets 21:30:42 0° 359° (N) 3,381 5.8 -33.4°
